Location: T. Spence Memorial Observatory
(32.7356°N, 82.2098°W)
Time: 20:56:27
(UTC-04:00)

Cosmos 2219 - Visible Passes

Search period start: 29 July 2014 00:00
Search period end: 08 August 2014 00:00
Orbit: 834 x 861 km, 71.1° (Epoch: 28 July)

Date Brightness Start Highest point End Pass type
(mag) Time Alt. Az. Time Alt. Az. Time Alt. Az.
29 Jul 4.5 22:10:34 10° SW 22:15:58 42° WNW 22:21:23 10° N visible
30 Jul 4.5 21:57:12 10° SW 22:02:37 43° WNW 22:08:03 10° N visible
31 Jul 4.5 21:43:50 10° SW 21:49:16 44° WNW 21:54:43 10° N visible
01 Aug 4.5 21:30:27 10° SW 21:35:55 45° WNW 21:41:23 10° N visible
02 Aug 4.5 21:17:05 10° SW 21:22:34 46° WNW 21:28:04 10° N visible
03 Aug 5.0 06:16:27 10° N 06:21:41 38° ENE 06:26:51 10° SE visible
03 Aug 4.5 21:03:43 10° SW 21:09:13 47° WNW 21:14:44 10° N visible
04 Aug 5.0 06:03:07 10° N 06:08:19 37° ENE 06:13:28 10° SE visible
04 Aug 4.5 20:50:21 10° SW 20:55:52 48° WNW 21:01:24 10° N visible
05 Aug 5.0 05:49:48 10° N 05:54:58 36° ENE 06:00:05 10° SE visible
06 Aug 5.0 05:36:28 10° N 05:41:37 35° ENE 05:46:42 10° SE visible
07 Aug 5.0 05:23:09 10° N 05:28:16 34° ENE 05:33:19 10° SE visible
